Kaltag, AK

11:38 AM AKDT on July 22, 2017 (GMT -0800)
Kaltag

Weather History for PAKV - October, 2011

Change the Weather History Date:

Wednesday, October 12, 2011

  Actual Average (PAGA) Record (PAGA)
Temperature  
Mean Temperature 26 °F -  
Max Temperature 30 °F 32 °F 53 °F (1969)
Min Temperature 23 °F 22 °F -2 °F (1996)
Degree Days  
Heating Degree Days 38    
Moisture  
Dew Point 26 °F    
Average Humidity 89    
Maximum Humidity 96    
Minimum Humidity 78    
Precipitation  
Precipitation 0.00 in - - ()
Sea Level Pressure  
Sea Level Pressure 29.91 in    
Wind  
Wind Speed 0 mph (South)    
Max Wind Speed 5 mph    
Max Gust Speed -    
Visibility 3 miles    
Events Fog , Snow    
Averages and records for this station are not official NWS values.
T = Trace of Precipitation, MM = Missing Value Source: NWS Daily Summary

Daily Weather History Graph

Daily Weather History Graph

Search for Another Location

Airport or City:

Trip Planner

Search our weather history database for the weather conditions in past years. The results will help you decide how hot, cold, wet, or windy it might be!

Date:

Astronomy

Oct. 12, 2011 Rise Set
Actual Time 9:16 AM AKDT 7:24 PM AKDT
Civil Twilight 8:27 AM AKDT 8:13 PM AKDT
Nautical Twilight 7:32 AM AKDT 9:08 PM AKDT
Astronomical Twilight 6:34 AM AKDT 10:05 PM AKDT
Moon 6:43 PM AKDT (10/12) 10:45 AM AKDT (10/12)
Length of Visible Light 11h 45m
Length of Day
10h 08m
Full, 100% of the Moon is Illuminated
Oct 12
Full
Oct 19
Last Quarter
Oct 26
New
Nov 2
First Quarter
Nov 10
Full

Hourly Weather History & Observations

Time (AKDT) Temp. Windchill Dew Point Humidity Pressure Visibility Wind Dir Wind Speed Gust Speed Precip Events Conditions
12:53 AM 25.0 °F - 21.0 °F 85% 30.03 in 10.0 mi Calm Calm - N/A   Overcast
1:53 AM 27.0 °F - 21.0 °F 78% 30.03 in 10.0 mi Calm Calm - N/A   Overcast
2:53 AM 27.0 °F - 21.0 °F 78% 30.03 in 10.0 mi Calm Calm - N/A   Overcast
3:53 AM 27.0 °F - 21.0 °F 78% 30.02 in 10.0 mi Calm Calm - N/A   Overcast
4:53 AM 27.0 °F - 21.0 °F 78% 30.02 in 10.0 mi Calm Calm - N/A   Overcast
5:53 AM 25.0 °F - 19.9 °F 81% 30.01 in 10.0 mi Calm Calm - N/A   Mostly Cloudy
6:53 AM 24.1 °F - 19.9 °F 84% 30.01 in 10.0 mi Calm Calm - N/A   Scattered Clouds
7:53 AM 23.0 °F - 19.9 °F 88% 30.01 in 9.0 mi Calm Calm - N/A   Overcast
8:53 AM 24.1 °F - 19.9 °F 84% 30.00 in 10.0 mi Calm Calm - N/A   Overcast
9:53 AM 26.1 °F - 21.0 °F 81% 29.99 in 10.0 mi Calm Calm - N/A   Overcast
10:53 AM 27.0 °F 23.0 °F 21.9 °F 81% 29.99 in 6.0 mi South 3.5 mph - 0.00 in Snow Light Snow
11:08 AM 26.6 °F - 23.0 °F 86% 29.98 in 2.5 mi Calm Calm - 0.00 in Snow Light Snow
11:17 AM 26.6 °F - 23.0 °F 86% 29.98 in 1.8 mi Calm Calm - 0.00 in Snow Light Snow
11:53 AM 27.0 °F - 24.1 °F 89% 29.99 in 1.0 mi Calm Calm - 0.00 in Snow Light Snow
12:10 PM 26.6 °F - 24.8 °F 93% 29.97 in 1.0 mi Calm Calm - 0.00 in Snow Light Snow
12:21 PM 28.4 °F - 24.8 °F 86% 29.97 in 0.8 mi Calm Calm - 0.00 in Snow Light Snow
12:53 PM 28.0 °F - 25.0 °F 88% 29.97 in 0.8 mi Calm Calm - 0.00 in Snow Light Snow
1:01 PM 28.4 °F - 24.8 °F 86% 29.96 in 1.0 mi Calm Calm - 0.00 in Snow Light Snow
1:14 PM 28.4 °F - 24.8 °F 86% 29.95 in 0.8 mi Calm Calm - 0.00 in Snow Light Snow
1:39 PM 28.4 °F - 26.6 °F 93% 29.95 in 1.0 mi Calm Calm - 0.00 in Snow Light Snow
1:53 PM 28.9 °F - 26.1 °F 89% 29.96 in 1.2 mi Calm Calm - 0.00 in Snow Light Snow
2:38 PM 28.4 °F 24.6 °F 26.6 °F 93% 29.94 in 2.5 mi SSW 3.5 mph - 0.00 in Snow Light Snow
2:46 PM 28.4 °F 24.6 °F 26.6 °F 93% 29.94 in 4.0 mi South 3.5 mph - 0.00 in Snow Light Snow
2:53 PM 28.9 °F 25.2 °F 26.1 °F 89% 29.95 in 4.0 mi SSE 3.5 mph - 0.00 in Snow Light Snow
3:13 PM 30.2 °F 26.7 °F 26.6 °F 86% 29.93 in 1.8 mi Variable 3.5 mph - 0.00 in Snow Light Snow
3:27 PM 30.2 °F - 26.6 °F 86% 29.93 in 1.0 mi Calm Calm - 0.00 in Snow Light Snow
3:53 PM 30.0 °F - 27.0 °F 88% 29.93 in 1.2 mi Calm Calm - 0.00 in Snow Light Snow
4:08 PM 30.2 °F - 26.6 °F 86% 29.91 in 0.8 mi Calm Calm - 0.00 in Snow Light Snow
4:15 PM 30.2 °F 25.4 °F 26.6 °F 86% 29.91 in 1.0 mi South 4.6 mph - 0.00 in Snow Light Snow
4:22 PM 30.2 °F - 26.6 °F 86% 29.90 in 0.8 mi Calm Calm - 0.00 in Snow Light Snow
4:33 PM 30.2 °F - 26.6 °F 86% 29.90 in 0.8 mi Calm Calm - 0.00 in Snow Light Snow
4:53 PM 30.0 °F - 28.0 °F 92% 29.91 in 0.8 mi Calm Calm - 0.00 in Snow Light Snow
5:53 PM 30.0 °F - 28.0 °F 92% 29.89 in 0.5 mi Calm Calm - 0.00 in Fog , Snow Snow
6:48 PM 30.2 °F - 28.4 °F 93% 29.85 in 0.8 mi Calm Calm - 0.00 in Snow Light Snow
6:53 PM 30.0 °F - 28.0 °F 92% 29.86 in 0.8 mi Calm Calm - 0.00 in Snow Light Snow
7:01 PM 30.2 °F - 28.4 °F 93% 29.85 in 0.5 mi Calm Calm - 0.00 in Fog , Snow Snow
7:28 PM 30.2 °F - 28.4 °F 93% 29.84 in 1.5 mi Calm Calm - 0.00 in Snow Light Snow
7:43 PM 30.2 °F - 28.4 °F 93% 29.83 in 1.8 mi Calm Calm - 0.00 in Snow Light Snow
7:53 PM 30.0 °F - 28.9 °F 96% 29.84 in 1.2 mi Calm Calm - 0.00 in Snow Light Snow
8:44 PM 30.2 °F - 28.4 °F 93% 29.81 in 1.0 mi Calm Calm - 0.00 in Snow Light Snow
8:51 PM 30.2 °F - 28.4 °F 93% 29.80 in 1.2 mi Calm Calm - 0.00 in Snow Light Snow
8:53 PM 30.0 °F - 28.0 °F 92% 29.82 in 1.2 mi Calm Calm - 0.00 in Snow Light Snow
9:53 PM 30.0 °F - 28.9 °F 96% 29.80 in 1.2 mi Calm Calm - 0.00 in Snow Light Snow
10:41 PM 30.2 °F - 28.4 °F 93% 29.77 in 1.5 mi Calm Calm - 0.00 in Snow Light Snow
10:53 PM 30.0 °F - 28.9 °F 96% 29.78 in 1.0 mi Calm Calm - 0.00 in Snow Light Snow
11:16 PM 30.2 °F - 28.4 °F 93% 29.76 in 0.8 mi Calm Calm - 0.00 in Snow Light Snow
11:25 PM 30.2 °F - 28.4 °F 93% 29.76 in 0.8 mi Calm Calm - 0.00 in Snow Light Snow
11:43 PM 30.2 °F - 28.4 °F 93% 29.75 in 1.0 mi Calm Calm - 0.00 in Snow Light Snow
11:51 PM 30.2 °F - 28.4 °F 93% 29.75 in 1.0 mi Calm Calm - 0.00 in Snow Light Snow
11:53 PM 30.9 °F - 28.9 °F 92% 29.76 in 1.0 mi Calm Calm - 0.00 in Snow Light Snow